TimeCDT,TemperatureF,Dew PointF,Humidity,Sea Level PressureIn,VisibilityMPH,Wind Direction,Wind SpeedMPH,Gust SpeedMPH,PrecipitationIn,Events,Conditions,WindDirDegrees,DateUTC
12:53 AM,51.1,48.0,89,29.88,10.0,SE,4.6,-,N/A,,Overcast,140,2013-05-05 05:53:00
1:53 AM,51.1,48.0,89,29.87,10.0,Calm,Calm,-,N/A,,Overcast,0,2013-05-05 06:53:00
2:29 AM,50.0,48.2,94,29.89,10.0,NW,9.2,-,N/A,,Overcast,310,2013-05-05 07:29:00
2:38 AM,50.0,48.2,94,29.89,10.0,NW,9.2,-,N/A,,Overcast,310,2013-05-05 07:38:00
2:53 AM,50.0,48.0,93,29.88,10.0,WNW,6.9,-,N/A,,Overcast,300,2013-05-05 07:53:00
3:00 AM,50.0,48.2,94,29.89,10.0,WNW,8.1,-,N/A,,Overcast,300,2013-05-05 08:00:00
3:19 AM,50.0,46.4,87,29.89,10.0,NW,6.9,-,N/A,,Scattered Clouds,310,2013-05-05 08:19:00
3:53 AM,48.9,45.0,86,29.87,10.0,NW,4.6,-,N/A,,Mostly Cloudy,310,2013-05-05 08:53:00
4:53 AM,46.9,43.0,86,29.88,10.0,NW,6.9,-,N/A,,Mostly Cloudy,310,2013-05-05 09:53:00
5:07 AM,46.4,42.8,87,29.89,10.0,NW,6.9,-,N/A,,Overcast,310,2013-05-05 10:07:00
5:53 AM,45.0,41.0,86,29.88,10.0,WNW,6.9,-,N/A,,Clear,300,2013-05-05 10:53:00
6:53 AM,45.0,41.0,86,29.91,10.0,WNW,8.1,-,N/A,,Clear,290,2013-05-05 11:53:00
7:53 AM,46.0,42.1,86,29.93,10.0,WNW,10.4,-,N/A,,Mostly Cloudy,290,2013-05-05 12:53:00
8:53 AM,48.0,42.1,80,29.95,10.0,WNW,11.5,-,N/A,,Overcast,300,2013-05-05 13:53:00
9:03 AM,48.2,42.8,82,29.96,10.0,NW,10.4,-,N/A,,Overcast,310,2013-05-05 14:03:00
9:53 AM,50.0,42.1,74,29.96,10.0,NW,8.1,-,N/A,,Overcast,320,2013-05-05 14:53:00
10:53 AM,51.1,41.0,68,29.98,10.0,NW,11.5,16.1,N/A,,Overcast,310,2013-05-05 15:53:00
11:00 AM,51.8,41.0,67,29.99,10.0,NW,10.4,17.3,N/A,,Overcast,320,2013-05-05 16:00:00
11:53 AM,53.1,41.0,64,29.98,10.0,WNW,12.7,17.3,N/A,,Overcast,300,2013-05-05 16:53:00
1:53 PM,55.9,41.0,57,29.98,10.0,WNW,13.8,-,N/A,,Overcast,300,2013-05-05 18:53:00
2:53 PM,59.0,43.0,55,29.96,10.0,NW,11.5,17.3,N/A,,Mostly Cloudy,320,2013-05-05 19:53:00
3:53 PM,57.9,44.1,60,29.96,10.0,NW,15.0,20.7,N/A,,Mostly Cloudy,310,2013-05-05 20:53:00
4:53 PM,57.0,44.1,62,29.97,10.0,NNW,9.2,-,N/A,,Mostly Cloudy,330,2013-05-05 21:53:00
5:53 PM,57.9,43.0,58,29.96,10.0,NW,9.2,17.3,N/A,,Partly Cloudy,320,2013-05-05 22:53:00
6:53 PM,57.0,44.1,62,29.97,10.0,NW,8.1,-,N/A,,Clear,320,2013-05-05 23:53:00
7:53 PM,54.0,45.0,72,29.97,10.0,Calm,Calm,-,N/A,,Clear,0,2013-05-06 00:53:00
8:53 PM,50.0,46.0,86,29.98,10.0,Calm,Calm,-,N/A,,Clear,0,2013-05-06 01:53:00
9:53 PM,50.0,45.0,83,29.98,10.0,West,3.5,-,N/A,,Clear,260,2013-05-06 02:53:00
10:53 PM,51.1,45.0,80,29.98,10.0,Calm,Calm,-,N/A,,Overcast,0,2013-05-06 03:53:00
11:53 PM,52.0,45.0,77,29.97,10.0,WSW,5.8,-,N/A,,Overcast,240,2013-05-06 04:53:00